Volver al catálogo

BLOCK DM-SL R/B

ActivoHEO
NORAD 28900·ROCKET BODY· XX

Lanzado Nov 8, 2005 desde Sea Launch Platform

Loading…

Próximos Pases (próximas 24 horas)

TLE

ActualizadoSource: Space-Track

Época: Sep 14, 2026, 17:44 UTC

1 28900U 05044B   26257.73918722  .00005793  00000-0  14557-2 0  9991
2 28900   2.9488  55.4434 6957596 149.5420 282.6029  2.69621181186975

Sigue BLOCK DM-SL R/B en tiempo real con AllMySat

Download on the App Store